[Date Prev][Date Next][Thread Prev][Thread Next] - [Date Index][Thread Index][Author Index]

2 Line ISS Keps 3-27



ISS
1 25544U 98067A   02086.18436699  .00046265  00000-0  58888-3 0  2336
2 25544  51.6367 104.9803 0003645 327.0511 151.4855 15.58869988191245


----
Via the sarex mailing list at AMSAT.ORG courtesy of AMSAT-NA.
To unsubscribe, send "unsubscribe sarex" to Majordomo@amsat.org



AMSAT Top AMSAT Home